Location: Vinland
(47.7731°N, 122.6974°W)
Time: 15:14:53
(UTC+00:00)

Vanguard 2 - Visible Passes

Search period start: 31 March 2023 00:00
Search period end: 10 April 2023 00:00
Orbit: 552 x 2927 km, 32.9° (Epoch: 31 March)

Date Brightness Start Highest point End Pass type
(mag) Time Alt. Az. Time Alt. Az. Time Alt. Az.
31 Mar 11.2 10:01:52 19° SSE 10:06:19 21° SE 10:17:35 10° E visible
31 Mar 11.0 12:03:07 16° SW 12:16:01 39° SSE 12:30:10 10° E visible
01 Apr 11.1 10:16:54 23° SSE 10:21:56 26° SE 10:34:47 10° E visible
01 Apr 10.9 12:18:09 15° SW 12:31:58 43° SSE 12:46:27 10° ESE visible
02 Apr 11.6 08:30:37 11° SE 08:30:37 11° SE 08:33:17 10° ESE visible
02 Apr 10.9 10:31:52 26° S 10:37:37 31° SSE 10:51:34 10° E visible
02 Apr 10.8 12:33:07 13° SW 12:47:56 45° S 13:02:39 10° ESE visible
03 Apr 11.4 08:45:32 16° SE 08:45:32 16° SE 08:53:09 10° ESE visible
03 Apr 10.8 10:46:47 28° S 10:53:21 36° SSE 11:08:07 10° E visible
03 Apr 10.8 12:48:01 11° WSW 13:03:55 47° S 13:18:45 10° ESE visible
04 Apr 11.2 09:00:25 21° SE 09:00:25 21° SE 09:11:00 10° E visible
04 Apr 10.7 11:01:39 28° SSW 11:09:08 40° SSE 11:24:29 10° E visible
04 Apr 10.8 13:03:43 10° WSW 13:19:54 48° S 13:34:45 10° ESE visible
05 Apr 10.9 09:15:14 26° SE 09:15:22 26° SE 09:28:08 10° E visible
05 Apr 10.7 11:16:28 27° SSW 11:24:59 43° SSE 11:40:44 10° ESE visible
06 Apr 10.7 09:30:02 30° SSE 09:30:55 31° SSE 09:44:53 10° E visible
06 Apr 10.7 11:31:16 25° SW 11:40:53 46° S 11:56:53 10° ESE visible
07 Apr 11.5 07:43:35 12° ESE 07:43:35 12° ESE 07:45:28 10° ESE visible
07 Apr 10.6 09:44:48 34° SSE 09:46:34 35° SSE 10:01:23 10° E visible
07 Apr 10.6 11:46:02 22° SW 11:56:49 47° S 12:12:56 10° ESE visible
08 Apr 11.3 07:58:19 17° ESE 07:58:19 17° ESE 08:03:25 10° E visible
08 Apr 10.4 09:59:34 37° S 10:02:16 39° SSE 10:17:43 10° E visible
08 Apr 10.6 12:00:47 19° WSW 12:12:46 48° S 12:28:54 10° ESE visible
09 Apr 11.0 08:13:05 21° ESE 08:13:05 21° ESE 08:20:33 10° E visible
09 Apr 10.3 10:14:18 38° S 10:18:03 42° SSE 10:33:55 10° ESE visible
09 Apr 10.6 12:15:33 15° WSW 12:28:42 47° S 12:44:45 10° ESE visible
